This is the latest recevied weather packets stored in our database for station/object IK1QAD-3. If no packets are shown the sender has not sent any weather packets the latest 10 day(s).
| Time | Temp. | Humidity | Pressure | Rain* | Wind** | Luminosity | Snow |
|---|---|---|---|---|---|---|---|
| 1777751613 | 13.89° C | 65% | 1021.2 hPa | 0 mm | - | - | - |
| 1777751311 | 13.89° C | 66% | 1021.2 hPa | 0 mm | - | - | - |
| 1777751010 | 13.89° C | 66% | 1021.1 hPa | 0 mm | - | - | - |
| 1777750721 | 13.89° C | 65% | 1021.1 hPa | 0 mm | - | - | - |
| 1777750421 | 13.89° C | 65% | 1021.1 hPa | 0 mm | - | - | - |
| 1777750114 | 13.89° C | 64% | 1021 hPa | 0 mm | - | - | - |
| 1777749814 | 14.44° C | 64% | 1021 hPa | 0 mm | - | - | - |
| 1777749510 | 14.44° C | 64% | 1020.9 hPa | 0 mm | - | - | - |
| 1777749221 | 14.44° C | 63% | 1020.9 hPa | 0 mm | - | - | - |
| 1777748914 | 14.44° C | 64% | 1020.8 hPa | 0 mm | - | - | - |
| 1777748624 | 13.89° C | 64% | 1020.8 hPa | 0 mm | - | - | - |
| 1777748320 | 14.44° C | 64% | 1020.7 hPa | 0 mm | - | - | - |
| 1777748018 | 14.44° C | 64% | 1020.8 hPa | 0 mm | - | - | - |
| 1777747718 | 14.44° C | 64% | 1020.8 hPa | 0 mm | - | - | - |
| 1777747414 | 15° C | 64% | 1020.8 hPa | 0 mm | - | - | - |
| 1777747108 | 15° C | 63% | 1020.8 hPa | 0 mm | - | - | - |
| 1777746804 | 15.56° C | 63% | 1020.7 hPa | 0 mm | - | - | - |
| 1777746521 | 15.56° C | 62% | 1020.7 hPa | 0 mm | - | - | - |
| 1777746217 | 16.11° C | 62% | 1020.7 hPa | 0 mm | - | - | - |
| 1777745917 | 16.11° C | 61% | 1020.7 hPa | 0 mm | - | - | - |
| 1777745610 | 16.11° C | 61% | 1020.7 hPa | 0 mm | - | - | - |
| 1777745311 | 16.11° C | 61% | 1020.6 hPa | 0 mm | - | - | - |
| 1777745008 | 16.67° C | 62% | 1020.7 hPa | 0 mm | - | - | - |
| 1777744719 | 16.67° C | 61% | 1020.7 hPa | 0 mm | - | - | - |
| 1777744417 | 17.22° C | 60% | 1020.5 hPa | 0 mm | - | - | - |
* Rain latest hour (hover to see other rain measurements)
** Current wind speed in m/s (hover to see current wind gust speed)